Fremont, NE

9:56 PM CDT on September 28, 2016 (GMT -0500)
Fremont Municipal

Weather History for KFET - January, 2012

Change the Weather History Date:

Wednesday, January 4, 2012

  Actual Average Record
Temperature  
Mean Temperature 42 °F -  
Max Temperature 57 °F 28 °F 57 °F (2012)
Min Temperature 26 °F 10 °F -19 °F (1969)
Degree Days  
Heating Degree Days 24    
Moisture  
Dew Point 25 °F    
Average Humidity 57    
Maximum Humidity 80    
Minimum Humidity 27    
Precipitation  
Precipitation 0.00 in - - ()
Sea Level Pressure  
Sea Level Pressure 30.16 in    
Wind  
Wind Speed 11 mph (West)    
Max Wind Speed 17 mph    
Max Gust Speed 24 mph    
Visibility 10 miles    
Events      
Averages and records for this station are not official NWS values.
T = Trace of Precipitation, MM = Missing Value Source: NWS Daily Summary

Daily Weather History Graph

Daily Weather History Graph

Search for Another Location

Airport or City:

Trip Planner

Search our weather history database for the weather conditions in past years. The results will help you decide how hot, cold, wet, or windy it might be!

Date:

Astronomy

Jan. 04, 2012 Rise Set
Actual Time 7:52 AM CST 5:09 PM CST
Civil Twilight 7:21 AM CST 5:40 PM CST
Nautical Twilight 6:46 AM CST 6:15 PM CST
Astronomical Twilight 6:13 AM CST 6:48 PM CST
Moon 1:33 PM CST (1/4) 3:41 AM CST (1/4)
Length of Visible Light 10h 19m
Length of Day
9h 16m
Waxing Gibbous, 81% of the Moon is Illuminated
Jan 4
Waxing Gibbous
Jan 9
Full
Jan 16
Last Quarter
Jan 23
New
Jan 30
First Quarter

Hourly Weather History & Observations

Time (CST) Temp. Windchill Dew Point Humidity Pressure Visibility Wind Dir Wind Speed Gust Speed Precip Events Conditions
12:15 AM 35.6 °F 27.1 °F 26.6 °F 70% 30.05 in 10.0 mi West 12.7 mph - N/A   Clear
12:35 AM 42.8 °F 35.8 °F 28.4 °F 57% 30.05 in 10.0 mi NW 13.8 mph 18.4 mph N/A   Clear
12:55 AM 42.8 °F 35.4 °F 28.4 °F 57% 30.06 in 10.0 mi WNW 15.0 mph - N/A   Clear
1:15 AM 42.8 °F 36.6 °F 28.4 °F 57% 30.07 in 10.0 mi NW 11.5 mph 18.4 mph N/A   Clear
1:35 AM 41.0 °F 35.2 °F 28.4 °F 61% 30.07 in 10.0 mi West 9.2 mph - N/A   Clear
1:55 AM 41.0 °F 33.1 °F 28.4 °F 61% 30.08 in 10.0 mi NW 15.0 mph 19.6 mph N/A   Clear
2:15 AM 41.0 °F 32.8 °F 28.4 °F 61% 30.09 in 10.0 mi NW 16.1 mph 20.7 mph N/A   Clear
2:35 AM 41.0 °F 32.5 °F 28.4 °F 61% 30.10 in 10.0 mi NW 17.3 mph 23.0 mph N/A   Clear
2:55 AM 41.0 °F 33.1 °F 28.4 °F 61% 30.11 in 10.0 mi NW 15.0 mph 24.2 mph N/A   Clear
3:15 AM 41.0 °F 32.8 °F 26.6 °F 57% 30.13 in 10.0 mi NW 16.1 mph 21.9 mph N/A   Clear
3:35 AM 39.2 °F 32.0 °F 26.6 °F 61% 30.14 in 10.0 mi NW 11.5 mph 21.9 mph N/A   Clear
3:55 AM 37.4 °F 30.3 °F 26.6 °F 65% 30.15 in 10.0 mi NW 10.4 mph - N/A   Clear
4:15 AM 33.8 °F 25.3 °F 26.6 °F 75% 30.16 in 10.0 mi WNW 11.5 mph - N/A   Clear
4:35 AM 33.8 °F 25.3 °F 24.8 °F 70% 30.16 in 10.0 mi WNW 11.5 mph - N/A   Clear
4:55 AM 33.8 °F 25.3 °F 26.6 °F 75% 30.18 in 10.0 mi NW 11.5 mph - N/A   Clear
5:15 AM 32.0 °F 24.8 °F 24.8 °F 75% 30.19 in 10.0 mi NW 8.1 mph - N/A   Clear
5:35 AM 32.0 °F 23.0 °F 24.8 °F 75% 30.19 in 10.0 mi NW 11.5 mph - N/A   Clear
5:55 AM 30.2 °F 21.3 °F 23.0 °F 75% 30.19 in 10.0 mi WNW 10.4 mph - N/A   Clear
6:15 AM 30.2 °F 21.3 °F 23.0 °F 75% 30.20 in 10.0 mi West 10.4 mph - N/A   Clear
6:35 AM 30.2 °F 21.3 °F 23.0 °F 75% 30.21 in 10.0 mi WNW 10.4 mph - N/A   Clear
6:55 AM 28.4 °F 19.7 °F 23.0 °F 80% 30.21 in 10.0 mi WNW 9.2 mph - N/A   Clear
7:15 AM 26.6 °F 17.5 °F 21.2 °F 80% 30.23 in 10.0 mi West 9.2 mph - N/A   Clear
7:35 AM 28.4 °F 19.7 °F 23.0 °F 80% 30.23 in 10.0 mi WNW 9.2 mph - N/A   Clear
7:55 AM 26.6 °F 18.2 °F 21.2 °F 80% 30.23 in 10.0 mi West 8.1 mph - N/A   Clear
8:15 AM 28.4 °F 20.4 °F 23.0 °F 80% 30.23 in 10.0 mi West 8.1 mph - N/A   Clear
8:35 AM 30.2 °F 22.6 °F 23.0 °F 75% 30.24 in 10.0 mi West 8.1 mph - N/A   Clear
8:55 AM 32.0 °F 24.2 °F 24.8 °F 75% 30.25 in 10.0 mi West 9.2 mph - N/A   Clear
9:15 AM 32.0 °F 23.6 °F 26.6 °F 80% 30.26 in 10.0 mi West 10.4 mph - N/A   Clear
9:35 AM 33.8 °F 26.4 °F 26.6 °F 75% 30.26 in 10.0 mi West 9.2 mph - N/A   Clear
9:55 AM 37.4 °F 30.3 °F 28.4 °F 70% 30.27 in 10.0 mi West 10.4 mph - N/A   Clear
10:15 AM 39.2 °F 34.2 °F 28.4 °F 65% 30.26 in 10.0 mi West 6.9 mph - N/A   Clear
10:35 AM 41.0 °F 35.8 °F 28.4 °F 61% 30.27 in 10.0 mi West 8.1 mph - N/A   Clear
10:55 AM 41.0 °F 36.4 °F 28.4 °F 61% 30.27 in 10.0 mi WSW 6.9 mph - N/A   Clear
11:15 AM 44.6 °F 39.7 °F 28.4 °F 53% 30.25 in 10.0 mi WNW 9.2 mph - N/A   Clear
11:35 AM 44.6 °F 39.2 °F 28.4 °F 53% 30.23 in 10.0 mi West 10.4 mph - N/A   Clear
11:55 AM 44.6 °F 39.7 °F 28.4 °F 53% 30.21 in 10.0 mi West 9.2 mph - N/A   Clear
12:15 PM 46.4 °F 42.9 °F 28.4 °F 50% 30.20 in 10.0 mi SW 6.9 mph - N/A   Clear
12:35 PM 48.2 °F - 26.6 °F 43% 30.18 in 10.0 mi WSW 5.8 mph - N/A   Clear
12:55 PM 48.2 °F - 26.6 °F 43% 30.17 in 10.0 mi West 8.1 mph - N/A   Clear
1:15 PM 50.0 °F - 24.8 °F 37% 30.15 in 10.0 mi West 4.6 mph - N/A   Clear
1:35 PM 51.8 °F - 24.8 °F 35% 30.14 in 10.0 mi Calm Calm - N/A   Clear
1:55 PM 53.6 °F - 23.0 °F 30% 30.12 in 10.0 mi SW 4.6 mph - N/A   Clear
2:15 PM 55.4 °F - 23.0 °F 29% 30.12 in 10.0 mi WSW 8.1 mph - N/A   Clear
2:35 PM 55.4 °F - 23.0 °F 29% 30.12 in 10.0 mi WSW 8.1 mph - N/A   Clear
2:55 PM 57.2 °F - 23.7 °F 28% 30.12 in 10.0 mi WSW 9.2 mph - N/A   Clear
3:15 PM 57.4 °F - 23.4 °F 27% 30.12 in 10.0 mi WSW 13.8 mph - N/A   Clear
4:15 PM 56.8 °F - 23.4 °F 27% 30.12 in 10.0 mi WSW 6.9 mph - N/A   Clear
4:35 PM 55.6 °F - 23.7 °F 29% 30.12 in 10.0 mi WSW 9.2 mph - N/A   Clear
4:55 PM 53.6 °F - 23.2 °F 31% 30.11 in 10.0 mi SW 5.8 mph - N/A   Clear
5:15 PM 53.1 °F - 23.0 °F 31% 30.11 in 10.0 mi SW 6.9 mph - N/A   Clear
5:35 PM 51.3 °F - 22.8 °F 33% 30.10 in 10.0 mi SW 5.8 mph - N/A   Clear
5:55 PM 51.1 °F - 22.6 °F 33% 30.11 in 10.0 mi SW 4.6 mph - N/A   Clear
6:15 PM 50.2 °F - 23.4 °F 35% 30.11 in 10.0 mi SW 6.9 mph - N/A   Clear
6:35 PM 50.7 °F - 23.7 °F 35% 30.11 in 10.0 mi SW 6.9 mph - N/A   Clear
6:55 PM 48.4 °F - 24.6 °F 39% 30.11 in 10.0 mi WSW 6.9 mph - N/A   Clear
7:15 PM 47.3 °F - 25.2 °F 42% 30.11 in 10.0 mi SW 8.1 mph - N/A   Clear
7:35 PM 47.1 °F - 25.5 °F 43% 30.11 in 10.0 mi WSW 5.8 mph - N/A   Clear
7:55 PM 45.5 °F 42.5 °F 25.3 °F 45% 30.11 in 10.0 mi SW 5.8 mph - N/A   Clear
8:15 PM 44.4 °F 40.5 °F 25.5 °F 48% 30.10 in 10.0 mi SW 6.9 mph - N/A   Clear
8:35 PM 44.8 °F 40.4 °F 25.7 °F 47% 30.09 in 10.0 mi SW 8.1 mph - N/A   Clear
8:55 PM 44.8 °F 41.0 °F 25.5 °F 47% 30.09 in 10.0 mi SW 6.9 mph - N/A   Clear
9:15 PM 44.8 °F 39.9 °F 25.7 °F 47% 30.09 in 10.0 mi WSW 9.2 mph - N/A   Clear
9:35 PM 44.6 °F 39.2 °F 25.5 °F 47% 30.09 in 10.0 mi WSW 10.4 mph - N/A   Clear
9:55 PM 35.8 °F 30.9 °F 23.7 °F 62% 30.10 in 10.0 mi West 5.8 mph - N/A   Clear
10:15 PM 33.1 °F 26.9 °F 23.9 °F 69% 30.09 in 10.0 mi West 6.9 mph - N/A   Clear
10:35 PM 33.3 °F 26.4 °F 24.4 °F 70% 30.09 in 10.0 mi West 8.1 mph - N/A   Clear
10:55 PM 32.0 °F 25.6 °F 23.9 °F 72% 30.08 in 10.0 mi West 6.9 mph - N/A   Clear
11:15 PM 32.4 °F 26.9 °F 24.3 °F 72% 30.08 in 10.0 mi West 5.8 mph - N/A   Clear
11:35 PM 31.8 °F 26.2 °F 24.1 °F 73% 30.08 in 10.0 mi West 5.8 mph - N/A   Clear
11:55 PM 31.3 °F 25.6 °F 23.9 °F 74% 30.07 in 10.0 mi West 5.8 mph - N/A   Clear